Mountain Home, ID

1:37 AM MDT on March 29, 2017 (GMT -0600)
Mountain Home Air Force Base

Weather History for KMUO - July, 2013

Change the Weather History Date:

Thursday, July 25, 2013

  Actual Average Record
Temperature  
Mean Temperature 86 °F 78 °F  
Max Temperature 101 °F 95 °F 105 °F (1969)
Min Temperature 71 °F 59 °F 42 °F (1968)
Degree Days  
Heating Degree Days 0 0  
Month to date heating degree days 0 6  
Cooling Degree Days 21 13  
Month to date cooling degree days 381 263  
Growing Degree Days 36 (Base 50)    
Moisture  
Dew Point 35 °F    
Average Humidity 18    
Maximum Humidity 34    
Minimum Humidity 7    
Precipitation  
Precipitation 0.00 in 0.01 in 0.19 in (2003)
Month to date precipitation T 0.18  
Sea Level Pressure  
Sea Level Pressure 29.91 in    
Wind  
Wind Speed 9 mph (NW)    
Max Wind Speed 18 mph    
Max Gust Speed 24 mph    
Visibility 10 miles    
Events      
T = Trace of Precipitation, MM = Missing Value Source: NWS Daily Summary

Daily Weather History Graph

Daily Weather History Graph

Search for Another Location

Airport or City:

Trip Planner

Search our weather history database for the weather conditions in past years. The results will help you decide how hot, cold, wet, or windy it might be!

Date:

Astronomy

Jul. 25, 2013 Rise Set
Actual Time 6:27 AM MDT 9:11 PM MDT
Civil Twilight 5:54 AM MDT 9:44 PM MDT
Nautical Twilight 5:12 AM MDT 10:26 PM MDT
Astronomical Twilight 4:24 AM MDT 11:13 PM MDT
Moon 10:47 PM MDT (7/25) 10:08 AM MDT (7/25)
Length of Visible Light 15h 50m
Length of Day
14h 44m
Waning Gibbous, 88% of the Moon is Illuminated
Jul 25
Waning Gibbous
Jul 29
Last Quarter
Aug 6
New
Aug 14
First Quarter
Aug 20
Full

Hourly Weather History & Observations

Time (MDT) Temp. Dew Point Humidity Pressure Visibility Wind Dir Wind Speed Gust Speed Precip Events Conditions
12:58 AM 82.2 °F 41.0 °F 23% 29.88 in 10.0 mi North 2.3 mph - N/A   Overcast
1:58 AM 78.3 °F 39.2 °F 25% 29.86 in 10.0 mi NNW 4.6 mph - N/A   Overcast
2:58 AM 71.4 °F 41.4 °F 34% 29.88 in 10.0 mi SW 5.8 mph - N/A   Overcast
3:58 AM 73.8 °F 40.8 °F 30% 29.88 in 10.0 mi West 10.4 mph - N/A   Overcast
4:58 AM 77.5 °F 41.2 °F 27% 29.90 in 10.0 mi WNW 12.7 mph - N/A   Overcast
5:58 AM 75.0 °F 41.2 °F 30% 29.90 in 10.0 mi West 10.4 mph - N/A   Overcast
6:58 AM 71.6 °F 41.4 °F 33% 29.91 in 10.0 mi NW 6.9 mph - N/A   Mostly Cloudy
7:58 AM 75.4 °F 41.7 °F 30% 29.93 in 10.0 mi WNW 8.1 mph - N/A   Scattered Clouds
8:58 AM 81.9 °F 36.3 °F 20% 29.94 in 10.0 mi West 16.1 mph - N/A   Clear
9:15 AM 82.4 °F 37.4 °F 20% 30.03 in 10.0 mi WNW 16.1 mph - N/A   Scattered Clouds
9:58 AM 86.0 °F 39.7 °F 19% 29.93 in 10.0 mi West 13.8 mph - N/A   Clear
10:58 AM 88.2 °F 40.3 °F 19% 29.94 in 10.0 mi WNW 12.7 mph - N/A   Clear
11:58 AM 90.9 °F 40.8 °F 17% 29.95 in 10.0 mi NNW 10.4 mph - N/A   Clear
12:58 PM 94.5 °F 38.3 °F 14% 29.93 in 10.0 mi NW 8.1 mph - N/A   Clear
1:58 PM 95.4 °F 33.6 °F 11% 29.92 in 10.0 mi Variable 4.6 mph - N/A   Clear
2:58 PM 97.5 °F 30.9 °F 10% 29.91 in 10.0 mi NNW 9.2 mph - N/A   Clear
3:58 PM 99.3 °F 29.5 °F 9% 29.90 in 10.0 mi WNW 11.5 mph 17.3 mph N/A   Clear
4:16 PM 100.4 °F 30.2 °F 9% 29.99 in 10.0 mi West 13.8 mph 20.7 mph N/A   Clear
4:58 PM 100.4 °F 26.4 °F 7% 29.88 in 10.0 mi West 9.2 mph - N/A   Clear
5:58 PM 100.8 °F 26.8 °F 7% 29.88 in 10.0 mi NW 15.0 mph 21.9 mph N/A   Clear
6:58 PM 100.0 °F 26.2 °F 7% 29.87 in 10.0 mi NNW 18.4 mph 24.2 mph N/A   Clear
7:58 PM 98.2 °F 27.3 °F 8% 29.87 in 10.0 mi NNW 16.1 mph - N/A   Clear
8:58 PM 94.6 °F 29.1 °F 10% 29.87 in 10.0 mi NNW 12.7 mph - N/A   Clear
9:58 PM 90.1 °F 30.4 °F 12% 29.90 in 10.0 mi NNW 10.4 mph - N/A   Clear
10:58 PM 83.1 °F 32.4 °F 16% 29.91 in 10.0 mi NNW 5.8 mph - N/A   Clear
11:58 PM 78.4 °F 32.4 °F 19% 29.93 in 10.0 mi WNW 10.4 mph - N/A   Clear